User: anonymous
Location: Caltech
(34.1382°N, 118.1253°W)
Time: 01:58:19
(UTC-07:00)
Language:

Iridium 21 - Orbit

View from above orbital plane
View from above orbital plane
View from above satellite
View from above satellite

Ground track
Ground track

The orbit data is extracted from the following two-line orbital elements,

1 25778U 99032B   14205.39449588  .00000229  00000-0  74706-4 0  8130
2 25778 086.3989 306.5286 0002087 106.5961 321.6393 14.34215336796358
Epoch (UTC): 24 July 2014 09:28:04
Eccentricity: 0.0002087
inclination: 86.3989°
perigee height: 776 km
apogee height: 779 km
right ascension of ascending node: 306.5286°
argument of perigee: 106.5961°
revolutions per day: 14.34215336
mean anomaly at epoch: 321.6393°
orbit number at epoch: 79635

The dashed part of the orbit path shows where the satellite is in the earth's shadow,  

DLR